Location: Bellerose
(40.7243°N, 73.7151°W)
Time: 05:29:36
(UTC+00:00)

Daily predictions for brighter satellites

Satellite Brightness Start Highest point End
(mag) Time Altitude Azimuth Time Altitude Azimuth Time Altitude Azimuth
Abrixas rocket 3.9 00:00:26 10° SSE 00:01:58 13° SE 00:02:28 13° SE
STARLINK-1269 3.5 00:00:50 10° SW 00:04:50 80° SE 00:08:54 10° NE
Cosmos 1331 Rocket 4.3 00:01:48 10° N 00:06:46 45° ENE 00:11:41 10° SE
FREGAT/IRIS 3.1 00:05:25 12° SE 00:07:34 31° ENE 00:10:02 10° N
SL-16 R/B 2.5 00:03:41 10° S 00:08:58 43° ESE 00:14:17 10° NE
STARLINK-1200 3.5 00:05:25 10° SW 00:09:27 87° SE 00:13:30 10° NE
Cosmos 304 Rocket 4.0 00:06:34 10° N 00:11:13 48° ENE 00:15:43 10° SE
STARLINK-1192 3.5 00:10:00 10° SW 00:14:01 86° NW 00:18:04 10° NE
Cosmos 1805 3.6 00:12:15 10° SSW 00:16:09 68° W 00:20:03 10° N
Ariane Rocket 2.9 00:12:43 10° SSE 00:17:47 78° ENE 00:22:52 10° N
Cosmos 371 Rocket 3.7 00:13:33 10° NNW 00:18:19 64° WSW 00:23:05 10° S
STARLINK-1244 3.6 00:14:41 10° SW 00:18:42 79° NW 00:22:46 10° NE
CZ-4 R/B 4.3 00:17:44 10° SW 00:20:32 19° W 00:23:18 10° NW
MONITOR-E 3.9 00:20:51 21° SE 00:22:19 51° ENE 00:24:55 10° N
Resurs 01 Rocket 3.1 00:22:22 17° E 00:23:15 18° ENE 00:26:12 10° NNE
STARLINK-1138 3.7 00:19:18 10° WSW 00:23:19 73° NW 00:27:22 10° NE
BREEZE-M DEB (TANK) 3.1 00:12:36 10° WNW 00:23:44 81° SW 00:25:58 21° SE
Cosmos 1110 Rocket 3.9 00:21:39 10° NNW 00:26:56 78° ENE 00:32:07 10° SSE
STARLINK-1143 3.9 00:24:00 10° WSW 00:28:00 67° NW 00:32:02 10° NE
Cosmos 2315 Rocket 4.1 00:24:13 10° S 00:30:19 58° E 00:36:32 10° NNE
USA 186 1.8 00:27:21 10° SSE 00:30:46 81° ENE 00:34:12 10° N
STARLINK-1110 4.5 00:29:06 10° NW 00:32:50 35° NNE 00:34:30 24° ENE
Meteor 2-5 Rocket 4.1 00:27:37 10° NNW 00:33:14 67° W 00:38:43 10° S
Cosmos 1470 2.9 00:31:47 10° SSE 00:35:29 47° E 00:39:14 10° NNE
Cosmos 2297 3.9 00:30:10 10° NNW 00:35:45 54° ENE 00:39:10 23° SE
H-2A R/B 2.1 00:32:08 10° SSE 00:37:31 85° W 00:42:46 10° NNW
ARGOS Delta rocket 4.3 00:32:49 10° S 00:37:47 70° W 00:43:04 10° NNW
SJ-6B 2.8 00:34:34 15° SSE 00:37:47 71° ENE 00:41:53 10° N
DMSP B5D2-2 4.4 00:33:10 10° NNE 00:38:03 40° E 00:42:55 10° SSE
Cosmos 1758 3.5 00:34:36 10° SSE 00:38:32 48° E 00:42:29 10° NNE
Cosmos 2237 Rocket 3.7 00:34:39 10° SW 00:39:53 39° WNW 00:45:10 10° N
STARLINK-1241 4.2 00:36:12 10° WSW 00:40:07 53° NW 00:44:01 10° NE
STARLINK-1122 4.3 00:37:59 10° NW 00:41:48 40° NNE 00:43:06 30° ENE
STARLINK-1239 4.4 00:40:46 10° WSW 00:44:39 49° NNW 00:48:22 11° NE
BREEZE-M DEB (TANK) 2.6 00:38:57 10° WSW 00:45:59 74° NNW 00:47:31 26° NE
STARLINK-1126 4.2 00:42:28 10° NW 00:46:20 43° NNE 00:47:26 34° ENE
MOS 1 4.4 00:41:25 10° SSE 00:47:03 80° WSW 00:52:44 10° NNW
Cosmos 2278 Rocket 3.8 00:43:40 10° NW 00:48:44 34° WSW 00:53:47 10° SSW
STARLINK-1082 4.1 00:46:54 10° NW 00:50:48 46° NNE 00:51:42 38° ENE
Meteor 1-24 Rocket 4.1 00:46:20 10° NNW 00:51:46 62° W 00:57:02 10° S
CZ-2C R/B 2.8 00:47:58 10° NNE 00:52:56 45° E 00:55:45 24° SSE
Meteor 2-15 Rocket 4.4 00:48:59 10° S 00:54:58 64° E 01:00:58 10° NNE
STARLINK-1100 3.9 00:51:21 10° NW 00:55:16 49° NNE 00:56:00 43° ENE
Cosmos 1455 Rocket 4.3 00:51:27 10° SSW 00:55:32 41° WNW 00:59:41 10° N
ARGOS 3.4 00:50:34 10° S 00:55:57 70° WSW 01:01:22 10° NNW
STARLINK-1083 3.8 00:55:50 10° NW 00:59:47 53° NE 01:00:19 49° ENE
Cosmos 1709 Rocket 4.0 00:55:09 10° N 01:01:22 79° W 01:07:28 10° S
SL-14 R/B 3.8 00:58:19 10° NNW 01:02:18 59° W 01:05:03 19° S
STARLINK-1125 3.7 01:00:19 10° NW 01:04:18 57° NE 01:04:39 55° ENE
Cosmos 1302 Rocket 3.9 00:59:19 10° NNW 01:04:37 79° ENE 01:06:40 38° SSE
Cosmos 1626 Rocket 3.5 01:02:21 10° N 01:06:47 86° W 01:08:26 38° S
Meteor 2-15 4.4 01:00:44 10° S 01:06:47 82° W 01:12:53 10° N
STARLINK-1066 3.3 01:03:39 10° NW 01:06:21 61° NW 01:06:21 61° NW
STARLINK-1081 3.4 01:04:06 10° NW 01:06:42 58° NW 01:06:42 58° NW
STARLINK-1070 3.4 01:04:33 10° NW 01:07:07 57° NW 01:07:07 57° NW
STARLINK-1069 3.4 01:04:58 10° NW 01:07:35 58° NW 01:07:35 58° NW
STARLINK-1109 3.6 01:04:24 10° NW 01:08:24 62° NE 01:08:35 61° NE
STARLINK-1085 3.4 01:05:25 10° NW 01:08:02 58° NW 01:08:02 58° NW
Cosmos 2251 Rocket 3.7 01:08:23 47° ESE 01:08:52 48° ESE 01:14:02 10° NNE
STARLINK-1086 3.5 01:05:55 10° NW 01:08:26 55° NW 01:08:26 55° NW
STARLINK-1095 3.5 01:06:21 10° NW 01:08:51 54° NW 01:08:51 54° NW
STARLINK-1077 3.6 01:06:48 10° NW 01:09:18 53° WNW 01:09:18 53° WNW
STARLINK-1075 3.6 01:07:15 10° NW 01:09:43 52° WNW 01:09:43 52° WNW
MetOp-A 4.0 01:07:36 30° SSE 01:10:22 88° ENE 01:15:46 10° NNW
STARLINK-1093 3.6 01:07:40 10° NW 01:10:12 54° WNW 01:10:12 54° WNW
STARLINK-1074 3.6 01:08:08 10° NW 01:10:38 53° WNW 01:10:38 53° WNW
STARLINK-1087 3.7 01:08:36 10° NW 01:11:02 50° WNW 01:11:02 50° WNW
STARLINK-1088 3.7 01:09:03 10° NW 01:11:28 49° WNW 01:11:28 49° WNW
ISS -1.4 01:10:19 10° NNW 01:12:29 16° NNE 01:12:34 16° NNE
STARLINK-1115 3.7 01:09:28 10° NW 01:11:56 50° WNW 01:11:56 50° WNW
ATLAS 2AS CENTAUR R/B 4.4 01:07:16 10° NNW 01:12:52 21° NNE 01:15:55 17° ENE
STARLINK-1091 3.5 01:08:56 10° NW 01:12:58 67° NE 01:12:59 67° NE
STARLINK-1076 3.8 01:09:55 10° NW 01:12:21 49° WNW 01:12:21 49° WNW
Cosmos 2074 Rocket 4.2 01:07:21 10° N 01:13:27 51° ENE 01:14:44 44° ESE
STARLINK-1092 3.8 01:10:23 10° NW 01:12:48 49° WNW 01:12:48 49° WNW
STARLINK-1080 3.9 01:10:52 10° NW 01:13:12 46° WNW 01:13:12 46° WNW
Cosmos 1602 Rocket 3.4 01:09:32 10° N 01:14:02 88° E 01:14:52 58° S
STARLINK-1090 3.9 01:11:18 10° NW 01:13:38 45° WNW 01:13:38 45° WNW
STARLINK-1089 3.9 01:11:46 10° NW 01:14:04 45° WNW 01:14:04 45° WNW
STARLINK-1107 4.0 01:12:12 10° NW 01:14:29 44° WNW 01:14:29 44° WNW
CZ-2C R/B 4.3 01:11:35 10° N 01:16:16 59° WNW 01:20:52 10° SSW
Cosmos 2369 Rocket 2.8 01:12:23 10° N 01:17:39 37° ENE 01:17:55 37° ENE
CZ-2C R/B 4.3 01:14:56 10° SSW 01:19:41 37° W 01:24:16 10° NNW
Cosmos 1953 3.0 01:22:18 44° NNE 01:22:18 44° NNE 01:25:06 10° N
USA 234 3.9 01:14:49 10° NE 01:21:09 55° NW 01:27:29 10° WSW
Meteor 1-21 Rocket 4.0 01:17:46 10° N 01:23:21 74° E 01:24:22 58° SE
STARLINK-1072 3.9 01:24:05 10° NW 01:27:27 62° NW 01:27:27 62° NW
IRIDIUM 104 4.3 01:24:04 10° N 01:29:19 82° W 01:30:46 49° S
STARLINK-1096 4.1 01:28:26 10° NW 01:31:38 55° WNW 01:31:38 55° WNW
SPOT 3 Rocket 4.4 01:33:34 25° SSW 01:36:17 48° W 01:41:21 10° NNW
STARLINK-1079 4.3 01:32:48 10° NW 01:35:50 49° WNW 01:35:50 49° WNW
Cosmos 1758 Rocket 4.4 01:38:12 10° N 01:41:10 42° N 01:41:10 42° N
Cosmos 1943 Rocket 2.0 01:40:28 10° NNW 01:45:50 79° NNE 01:45:50 79° NNE
Cosmos 2327 Rocket 4.4 01:45:31 10° N 01:51:34 70° ENE 01:51:34 70° ENE
SL-16 R/B 4.1 01:48:24 10° WSW 01:53:13 28° NW 01:58:05 10° N
Meteor 2-10 4.4 01:58:38 59° WSW 01:59:08 62° WNW 02:04:35 10° N
Resurs 01 Rocket 2.8 01:59:55 40° WNW 01:59:55 40° WNW 02:03:36 10° NNW
Cosmos 2184 Rocket 4.2 01:57:01 10° NNW 02:03:18 69° W 02:04:08 62° SW
Spot 2 Rocket 4.2 02:11:05 50° NNW 02:11:05 50° NNW 02:14:55 10° NNW
Cosmos 1603 4.4 02:15:57 46° N 02:15:57 46° N 02:20:02 10° NNE
Cosmos 2154 Rocket 4.2 02:17:45 10° N 02:23:24 67° NW 02:23:24 67° NW
Terra 4.2 02:41:59 18° N 02:41:59 18° N 02:43:11 10° N
Cosmos 2369 Rocket 4.0 02:56:36 10° NW 02:59:43 26° WNW 02:59:43 26° WNW
ATLAS 2AS CENTAUR R/B 3.5 02:57:48 10° NNW 03:03:21 49° N 03:03:21 49° N
SL-16 R/B 4.5 05:50:49 24° NNE 05:50:49 24° NNE 05:53:27 10° N
CZ-2D R/B 4.1 06:58:55 10° N 07:00:59 23° N 07:00:59 23° N
Resurs 1-4 Rocket 4.2 07:06:17 10° N 07:08:01 21° N 07:08:01 21° N
Cosmos 2333 Rocket 4.3 07:13:53 10° N 07:18:25 24° NE 07:22:55 10° ESE
ADEOS II 3.6 07:13:50 10° NNE 07:16:41 33° NNE 07:16:41 33° NNE
ARIANE 5 R/B 3.9 07:19:17 10° NNE 07:22:31 36° NE 07:22:31 36° NE
USA 267 3.7 07:29:50 10° NE 07:35:57 48° NNW 07:35:57 48° NNW
Cosmos 2360 Rocket 4.1 07:30:46 10° NNW 07:32:28 20° NNW 07:32:28 20° NNW
SL-4 R/B 4.3 07:48:01 22° NE 07:48:01 22° NE 07:50:32 10° ENE
IDEFIX/ARIANE 42P 3.6 07:45:50 10° NNE 07:50:40 38° E 07:51:16 37° ESE
Tsikada Rocket 4.5 07:50:35 47° SE 07:52:02 58° E 07:58:18 10° NNE
Cosmos 2285 Rocket 3.9 07:54:23 85° E 07:54:23 85° E 08:00:43 10° NNE
Cosmos 2346 Rocket 4.3 08:08:13 80° SW 08:08:31 83° W 08:14:43 10° N
USA 234 3.1 08:02:33 10° SE 08:09:06 87° SW 08:15:41 10° NW
Cosmos 2297 Rocket 4.5 08:06:42 10° SE 08:10:36 19° E 08:14:30 10° NE
Cosmos 2034 Rocket 3.9 08:04:37 10° N 08:11:01 79° W 08:11:37 71° SSW
Cosmos 1898 Rocket 3.4 08:12:54 79° E 08:12:54 79° E 08:17:58 10° NNE
Cosmos 1937 Rocket 3.9 08:12:27 52° SE 08:13:09 57° ESE 08:18:17 10° NNE
Cosmos 44 Rocket 4.4 08:15:32 33° NNW 08:15:32 33° NNW 08:18:44 10° NNE
Meteor 1-27 Rocket 3.6 08:15:05 79° WNW 08:15:05 79° WNW 08:20:41 10° N
COSMOS 2428 3.1 08:15:53 10° NNW 08:21:34 63° ENE 08:27:11 10° SE
BREEZE-M DEB (TANK) 4.2 08:22:51 35° NNW 08:23:08 36° N 08:28:09 10° ENE
Meteor 1-11 Rocket 3.7 08:21:18 10° NNW 08:27:07 62° W 08:27:17 62° WSW
SJ 16-02 2.1 08:28:36 43° NNW 08:28:36 43° NNW 08:31:52 10° N
Cosmos 2322 3.6 08:24:53 10° NNW 08:30:33 65° WSW 08:31:30 56° SSW
CZ-4B R/B 2.4 08:31:19 46° NE 08:31:19 46° NE 08:34:13 10° N
Cosmos 1908 Rocket 4.1 08:28:38 10° N 08:32:58 56° E 08:36:40 13° SSE
Cosmos 2333 4.0 08:28:46 10° NNW 08:34:20 66° WSW 08:39:52 10° S
Cosmos 2227 Rocket 4.0 08:30:32 10° SSE 08:35:13 28° ESE 08:39:55 10° NE
STARLINK-1029 4.4 08:38:34 35° E 08:38:34 35° E 08:40:42 10° ENE
STARLINK-58 3.8 08:39:32 54° NE 08:39:32 54° NE 08:42:18 10° NE
STARLINK-1010 4.1 08:38:41 48° SSE 08:38:58 49° SE 08:43:01 10° ENE
STARLINK-34 3.7 08:41:45 59° NE 08:41:45 59° NE 08:44:42 10° NE
Cosmos 2219 Rocket 2.0 08:35:48 10° NNW 08:41:25 85° WSW 08:47:00 10° SSE
STARLINK-62 3.6 08:43:00 61° NE 08:43:00 61° NE 08:46:00 10° NE
STARLINK-1008 4.4 08:43:39 40° SSE 08:44:15 42° SE 08:48:11 10° ENE
Cosmos 1680 Rocket 4.1 08:39:29 10° NNW 08:43:09 38° WNW 08:43:09 38° WNW
COBE Rocket 3.7 08:42:50 40° S 08:44:31 71° W 08:49:20 10° NNW
STARLINK-24 4.1 08:44:48 44° SSE 08:45:15 46° SE 08:49:06 10° ENE
STARLINK-64 3.5 08:46:28 62° NNE 08:46:28 62° NNE 08:49:37 10° NE
CZ-2C R/B 3.8 08:43:52 10° N 08:46:46 35° NW 08:46:46 35° NW
BREEZE-M DEB (TANK) 2.7 08:47:23 47° S 08:47:46 50° SSE 08:50:13 10° ENE
Cosmos 990 Rocket 4.2 08:47:47 46° W 08:48:14 48° WNW 08:53:14 10° N
COSMOS 2441 4.3 08:44:23 10° NNE 08:49:11 81° ESE 08:51:38 29° S
deb Chang Zheng 4 3.6 08:46:06 10° N 08:50:18 55° WNW 08:50:24 55° W
Okean 1-7 3.3 08:47:59 26° S 08:50:18 67° E 08:54:40 10° NNE
Cosmos 1689 Rocket 3.2 08:50:02 12° SE 08:52:39 44° ENE 08:55:33 10° N
STARLINK-1014 4.2 08:52:14 40° S 08:52:59 46° SE 08:56:47 10° ENE
STARLINK-1264 4.5 08:54:29 25° NNE 08:54:29 25° NNE 08:55:45 10° NE
STARLINK-1256 4.5 08:54:35 25° NNE 08:54:35 25° NNE 08:55:51 10° NE
STARLINK-1267 4.5 08:54:53 25° NNE 08:54:53 25° NNE 08:56:10 10° NE
STARLINK-1213 4.5 08:54:59 25° NNE 08:54:59 25° NNE 08:56:17 10° NE
STARLINK-1025 4.1 08:53:12 42° S 08:54:09 52° SE 08:58:11 10° ENE
STARLINK-1272 4.4 08:55:18 25° NNE 08:55:18 25° NNE 08:56:36 10° NE
Cosmos 158 Rocket 4.0 08:49:07 10° NNW 08:54:14 52° WSW 08:59:12 10° S
STARLINK-1263 4.4 08:55:22 25° NNE 08:55:22 25° NNE 08:56:40 10° NE
STARLINK-1207 4.4 08:55:30 25° NNE 08:55:30 25° NNE 08:56:49 10° NE
STARLINK-1259 4.4 08:55:46 25° NNE 08:55:46 25° NNE 08:57:05 10° NE
STARLINK-1266 4.4 08:55:48 26° NNE 08:55:48 26° NNE 08:57:08 10° NE
STARLINK-1285 4.4 08:56:03 26° NNE 08:56:03 26° NNE 08:57:23 10° NE
STARLINK-1284 4.4 08:56:04 26° NNE 08:56:04 26° NNE 08:57:24 10° NE
STARLINK-1265 4.4 08:56:26 26° NNE 08:56:26 26° NNE 08:57:47 10° NE
STARLINK-1258 4.4 08:56:36 26° NNE 08:56:36 26° NNE 08:57:58 10° NE
Geosat 4.3 08:50:56 10° NNE 08:55:45 48° WNW 08:56:53 40° W
STARLINK-1296 4.3 08:56:51 26° NNE 08:56:51 26° NNE 08:58:13 10° NE
STARLINK-1312 4.3 08:56:56 28° NNE 08:56:56 28° NNE 08:58:24 10° NE
STARLINK-1292 4.3 08:57:00 26° NNE 08:57:00 26° NNE 08:58:22 10° NE
STARLINK-1260 4.3 08:57:07 26° NNE 08:57:07 26° NNE 08:58:30 10° NE
STARLINK-1274 4.3 08:57:12 26° NNE 08:57:12 26° NNE 08:58:35 10° NE
STARLINK-1289 4.3 08:57:25 27° NNE 08:57:25 27° NNE 08:58:49 10° NE
STARLINK-1318 4.3 08:57:25 27° NNE 08:57:25 27° NNE 08:58:49 10° NE
CBERS 1 LM4 rocket 4.3 08:51:45 10° NNE 08:56:35 81° WNW 08:59:07 29° SSW
STARLINK-1275 4.3 08:57:45 27° NNE 08:57:45 27° NNE 08:59:09 10° NE
STARLINK-1303 4.3 08:57:56 27° NNE 08:57:56 27° NNE 08:59:21 10° NE
STARLINK-1309 4.3 08:58:07 27° NNE 08:58:07 27° NNE 08:59:32 10° NE
STARLINK-1282 4.2 08:58:27 27° NNE 08:58:27 27° NNE 08:59:53 10° NE
STARLINK-1280 4.2 08:58:50 27° NNE 08:58:50 27° NNE 09:00:17 10° NE
STARLINK-1307 4.2 08:59:04 28° NNE 08:59:04 28° NNE 09:00:35 10° NE
ADEOS II 3.9 08:55:08 10° NNW 08:57:38 16° NW 08:57:38 16° NW
STARLINK-1278 4.2 08:59:10 27° NNE 08:59:10 27° NNE 09:00:38 10° NE
Cosmos 2242 Rocket 3.7 08:57:33 48° WSW 08:58:15 53° W 09:02:46 10° N
STARLINK-1290 4.2 08:59:34 28° NNE 08:59:34 28° NNE 09:01:04 10° NE
STARLINK-1298 4.2 08:59:36 28° NNE 08:59:36 28° NNE 09:01:05 10° NE
STARLINK-1293 4.2 08:59:52 28° NNE 08:59:52 28° NNE 09:01:22 10° NE
STARLINK-1297 4.1 09:00:01 28° NNE 09:00:01 28° NNE 09:01:31 10° NE
STARLINK-1017 4.0 08:58:00 41° SSW 08:59:08 58° SE 09:03:13 10° ENE
STARLINK-1268 4.1 09:00:19 28° NNE 09:00:19 28° NNE 09:01:51 10° NE
STARLINK-1299 4.1 09:00:41 28° NNE 09:00:41 28° NNE 09:02:12 10° NE
Lacrosse 5 rocket 1.6 08:59:42 42° NW 08:59:57 43° NW 09:03:43 10° NNE
Timation 2 Rocket 4.2 08:57:09 32° SW 09:00:21 64° WNW 09:07:12 10° NNE
STARLINK-1311 4.0 09:02:17 30° N 09:02:17 30° N 09:03:56 10° NE
Cosmos 2333 Rocket 2.2 08:57:31 10° NNW 09:02:59 52° WSW 09:08:26 10° S
ARIANE 5 R/B 4.0 08:59:24 10° NNW 09:02:52 20° WNW 09:02:52 20° WNW
Cosmos 2279 Rocket 4.2 08:58:18 10° N 09:04:32 74° E 09:10:46 10° SSE
STARLINK-41 4.2 09:05:25 29° NNW 09:05:25 29° NNW 09:08:15 10° NNE
STARLINK-81 3.7 09:07:34 38° SSW 09:08:58 68° SE 09:12:58 10° NE
ASTRO E2 4.5 09:08:51 18° S 09:09:26 18° S 09:12:14 10° SE
STARLINK-54 3.5 09:09:25 39° SW 09:10:49 78° SE 09:14:51 10° NE
STARLINK-77 3.6 09:10:46 36° SW 09:12:17 73° SE 09:16:19 10° NE
SeaSat 1 2.4 09:07:35 10° SSE 09:12:28 64° WSW 09:17:23 10° NNW
MSX 3.9 09:07:55 10° N 09:13:34 58° WNW 09:17:39 19° SW
STARLINK-25 3.6 09:12:21 35° SW 09:13:57 76° SE 09:17:59 10° NE
STARLINK-1048 3.6 09:12:21 34° SW 09:14:03 78° SE 09:18:11 10° NE
STARLINK-1023 3.6 09:13:23 35° SW 09:15:06 87° SE 09:19:19 10° NE
NOSS 0 Rocket 3.8 09:09:00 10° NNW 09:15:12 85° WSW 09:21:20 10° SSE
STARLINK-71 3.5 09:14:13 36° SW 09:15:47 87° SE 09:19:50 10° NE
STARLINK-1255 3.7 09:16:33 28° NNW 09:16:33 28° NNW 09:18:39 10° NNE
STARLINK-79 3.5 09:15:31 33° SW 09:17:13 81° SE 09:21:15 10° NE
STARLINK-78 3.5 09:17:09 32° SW 09:18:55 84° SE 09:22:58 10° NE
STARLINK-1049 3.6 09:17:06 31° SW 09:18:59 85° SE 09:23:08 10° NE
Okean 1 3.4 09:17:11 28° SW 09:19:01 54° W 09:22:55 10° N
STARLINK-1306 3.7 09:19:22 28° NW 09:19:26 28° NNW 09:21:50 10° NNE
STARLINK-57 3.5 09:18:52 32° SW 09:20:40 89° NW 09:24:42 10° NE
Cosmos 1975 2.9 09:17:51 10° N 09:21:52 78° E 09:25:52 10° S
STARLINK-49 3.5 09:20:19 30° SW 09:22:12 89° SE 09:26:15 10° NE
STARLINK-27 3.5 09:21:53 29° SW 09:23:50 88° NW 09:27:53 10° NE
STARLINK-1051 3.5 09:21:53 29° SW 09:23:58 88° NNW 09:28:07 10° NE
Meteor 2-4 Rocket 4.4 09:19:22 10° S 09:25:10 60° E 09:31:00 10° NNE
Starlink placeholder 4.3 09:25:49 14° NNW 09:25:49 14° NNW 09:26:40 10° NNE
STARLINK-74 3.5 09:23:28 28° SW 09:25:29 86° NW 09:29:31 10° NE
Cosmos 1743 2.9 09:21:59 10° NNW 09:25:43 47° W 09:29:27 10° SSW
Cosmos 1515 3.6 09:22:54 10° S 09:26:40 86° W 09:30:29 10° N
STARLINK-39 3.5 09:25:04 27° SW 09:27:09 83° NW 09:31:12 10° NE
SL-4 R/B 2.0 09:23:38 13° NW 09:27:15 85° NE 09:31:37 10° SE
STARLINK-31 3.5 09:26:41 26° WSW 09:28:50 80° NW 09:32:53 10° NE
Cosmos 1544 3.4 09:25:55 10° N 09:29:32 68° E 09:33:08 10° SSE
IDEFIX/ARIANE 42P 3.6 09:25:50 10° NNW 09:30:03 26° WNW 09:32:05 20° W
STARLINK-69 3.5 09:28:31 26° WSW 09:30:41 72° NW 09:34:42 10° NE
STARLINK-21 3.5 09:29:55 25° WSW 09:32:10 75° NW 09:36:13 10° NE
STARLINK-1028 3.6 09:31:28 23° WSW 09:33:56 74° NW 09:38:05 10° NE
STARLINK-45 3.6 09:31:46 24° WSW 09:34:02 66° NW 09:38:03 10° NE
Cosmos 2237 Rocket 2.2 09:28:23 10° NNW 09:34:06 88° WSW 09:39:47 10° SSE
PSLV R/B 4.4 09:30:51 10° N 09:34:43 32° WNW 09:37:07 19° WSW
STARLINK-1007 3.7 09:32:21 23° WSW 09:34:52 70° NW 09:39:05 10° NE
H-2A R/B 3.3 09:30:57 10° NNE 09:35:06 53° E 09:39:03 10° S
STARLINK-70 3.6 09:33:13 23° WSW 09:35:34 66° NW 09:39:35 10° NE
GPS 2-04 Rocket1 3.5 09:34:41 22° SW 09:36:22 33° S 09:39:41 10° SE
USA 238 DEB 3.8 09:30:19 10° SSW 09:36:56 79° ESE 09:43:48 10° NE
USA 238 3.8 09:30:27 10° SSW 09:37:03 78° ESE 09:43:54 10° NE
STARLINK-76 3.6 09:34:40 22° WSW 09:37:08 68° NW 09:41:09 10° NE
STARLINK-23 3.6 09:36:16 21° WSW 09:38:47 66° NW 09:42:48 10° NE
STARLINK-1021 3.7 09:36:14 21° WSW 09:38:55 68° NW 09:43:02 10° NE
CZ-2C R/B 2.4 09:34:50 10° N 09:39:20 52° WNW 09:43:45 10° SSW
STARLINK-32 3.6 09:37:52 21° WSW 09:40:28 64° NW 09:44:28 10° NE
STARLINK-40 3.7 09:39:27 20° WSW 09:42:07 62° NW 09:46:07 10° NE
STARLINK-1313 4.4 09:41:50 14° NW 09:42:25 14° NNW 09:43:48 10° N
STARLINK-1286 4.4 09:41:25 16° WNW 09:42:30 19° NNW 09:44:35 10° NNE
Cosmos 1782 Rocket 3.9 09:39:18 10° NNW 09:43:23 41° W 09:47:27 10° SSW
CZ-4B R/B 3.3 09:39:34 10° NNE 09:43:42 71° ESE 09:48:01 10° S
STARLINK-44 3.7 09:41:02 19° WSW 09:43:46 60° NW 09:47:45 10° NE
ALOS 3.3 09:39:16 10° NNE 09:43:48 49° E 09:48:18 10° S
STARLINK-1019 3.7 09:41:03 19° WSW 09:43:55 62° NW 09:48:02 10° NE
STARLINK-37 3.8 09:42:47 18° WSW 09:45:33 55° NW 09:49:31 10° NE
STARLINK-1301 4.5 09:46:18 12° NW 09:47:01 13° NNW 09:48:09 10° N
STARLINK-36 3.8 09:44:12 18° WSW 09:47:03 56° NW 09:51:02 10° NE
Cosmos 2219 3.5 09:42:23 11° SW 09:47:38 49° WNW 09:53:13 10° NNE
STARLINK-1012 3.8 09:45:49 17° WSW 09:48:54 57° NW 09:53:00 10° NE
STARLINK-68 3.9 09:46:03 17° WSW 09:48:57 50° NNW 09:52:54 10° NE
Cosmos 1484 Rocket 2.8 09:46:28 10° NNE 09:50:22 81° ESE 09:54:11 10° S
STARLINK-63 3.9 09:47:31 16° WSW 09:50:30 51° NNW 09:54:27 10° NE
Cosmos 2221 Rocket 3.6 09:47:25 10° SSW 09:51:53 69° W 09:56:20 10° N
STARLINK-35 3.9 09:48:59 16° WSW 09:52:03 52° NW 09:56:00 10° NE
USA 234 4.3 09:47:49 10° S 09:52:38 22° WSW 09:57:28 10° WNW
STARLINK-60 4.2 09:49:41 10° NW 09:52:50 42° NNE 09:55:58 10° ESE
Meteor 2-9 Rocket 4.3 09:47:36 10° NNW 09:53:21 64° W 09:59:08 10° S
STARLINK-51 3.9 09:50:35 15° WSW 09:53:43 50° NNW 09:57:39 10° NE
Cosmos 2297 Rocket 2.3 09:48:33 10° SW 09:54:07 58° WNW 09:59:44 10° NNE
STARLINK-30 4.0 09:52:10 14° WSW 09:55:22 49° NNW 09:59:18 10° NE
ADEOS 4.2 09:50:44 10° N 09:55:26 35° WNW 10:00:07 10° SW
STARLINK-72 4.0 09:53:45 14° WSW 09:57:01 47° NNW 10:00:56 10° NE
STARLINK-50 4.1 09:55:22 13° WSW 09:58:42 46° NNW 10:02:36 10° NE
STARLINK-1026 4.1 09:55:23 13° WSW 09:58:53 48° NNW 10:02:55 10° NE
STARLINK-59 4.2 09:57:04 13° WSW 10:00:28 43° NNW 10:04:20 10° NE
STARLINK-56 4.1 09:58:32 12° WSW 10:02:01 44° NNW 10:05:54 10° NE
COSMO-SKYMED 1 3.0 09:57:52 10° SSE 10:02:10 68° ENE 10:06:29 10° N
Sich 1 Rocket 4.0 09:58:36 10° NNW 10:02:40 38° W 10:06:43 10° SSW
Cosmos 1356 4.2 09:59:37 10° N 10:03:01 57° E 10:06:24 10° SSE
STARLINK-73 4.2 10:00:08 12° WSW 10:03:41 42° NNW 10:07:32 10° NE
STARLINK-1013 4.2 10:00:11 12° WSW 10:03:54 45° NNW 10:07:54 10° NE
COSMOS 2428 4.0 10:01:34 10° WNW 10:05:14 18° W 10:08:52 10° SW
STARLINK-38 4.2 10:01:42 11° WSW 10:05:20 41° NNW 10:09:11 10° NE
STARLINK-65 4.3 10:03:17 11° WSW 10:06:59 40° NNW 10:10:48 10° NE
NOSS 3-2 (A) 3.4 10:01:40 10° SW 10:07:18 70° NW 10:13:42 10° NNE
STARLINK-53 4.3 10:05:02 10° W 10:08:47 38° NNW 10:12:34 10° NE
STARLINK-1009 4.3 10:04:57 10° WSW 10:08:53 41° NNW 10:12:50 10° NE
Okean O Rocket 3.8 10:07:38 10° NE 10:11:32 30° E 10:15:24 10° SSE
Cosmos 389 Rocket 3.0 10:08:48 10° SSW 10:12:12 40° WNW 10:15:37 10° N
STARLINK-1015 4.4 10:09:58 10° W 10:13:52 39° NNW 10:17:47 10° NE
STARLINK-1033 4.3 10:12:04 10° SW 10:16:07 55° SE 10:20:10 10° ENE
Okean 3 4.0 10:12:33 10° SW 10:16:24 35° WNW 10:20:17 10° N
Cosmos 2151 Rocket 3.5 10:12:16 10° NNW 10:16:39 70° W 10:21:01 10° S
Okean 2 Rocket 3.4 10:13:11 10° NNW 10:17:27 45° W 10:21:44 10° SSW
Cosmos 1048 Rocket 4.2 10:13:46 10° NNW 10:18:57 55° WSW 10:24:09 10° S
Cosmos 2227 Rocket 2.7 10:13:43 10° SW 10:19:01 41° WNW 10:24:23 10° N
